Regional Weather Roundup
Issued by NWS Albany, NY

Home | Current Version | Previous Version | Text Only | Print | Product List | Glossary On
Versions: 1 2 3 4 5 6 7 8 9 10 11 12 13 14 15 16 17 18 19 20 21 22 23 24 25 26 27 28 29 30 31 32 33 34 35 36 37 38 39 40 41 42 43 44 45 46 47 48 49 50
000
ASUS41 KALY 240710
RWRALY

NEW YORK STATE HOURLY WEATHER ROUNDUP
NATIONAL WEATHER SERVICE ALBANY NY
300 AM EDT WED MAY 24 2017

NOTE: "FAIR" INDICATES FEW OR NO CLOUDS BELOW 12,000 FEET WITH NO
SIGNIFICANT WEATHER AND/OR NO OBSTRUCTIONS TO VISIBILITY.

NYZ032-033-038>043-046>054-057>066-NYZ062>081-082-084-240800-
EAST


CITY           SKY/WX    TMP DP  RH WIND       PRES   REMARKS
ALBANY         CLOUDY    54  50  86 CALM      29.77F
GLENS FALLS    NOT AVBL
POUGHKEEPSIE   CLOUDY    53  51  93 CALM      29.75F
NEWBURGH       MOCLDY    55  54  94 CALM      29.77S
MONTGOMERY     CLOUDY    52  51  97 W3        29.75F
WHITE PLAINS   CLOUDY    58  51  78 CALM      29.74F
ISLIP          LGT RAIN  57  53  86 CALM      29.75S
NEW YORK CITY  CLOUDY    60  51  72 E3        29.75R
CENTRAL PARK   CLOUDY    60  51  72 CALM      29.77S
$$

NYZ005>009-017-018-044>046-055-056-240800-
CENTRAL


CITY           SKY/WX    TMP DP  RH WIND       PRES   REMARKS
FULTON         MOCLDY    52  49  89 CALM      29.73F
SYRACUSE       MOCLDY    53  50  89 E5        29.73F
ROME           CLOUDY    50  49  96 CALM      29.77F
ELMIRA         CLOUDY    50  46  86 CALM      29.73F
BINGHAMTON     CLOUDY    52  45  77 NE5       29.75F
MONTICELLO     CLOUDY    50  48  93 N3        29.78F
$$

NYZ026>034-041>043-087-240800-
NORTH


CITY           SKY/WX    TMP DP  RH WIND       PRES   REMARKS
WATERTOWN      CLOUDY    49  49 100 E5        29.74F
FORT DRUM      NOT AVBL
OGDENSBURG     FAIR      52  50  95 CALM      29.75F
MASSENA        CLEAR     48  47  96 CALM      29.76F
SARANAC LAKE   PTCLDY    39  39 100 NE3       29.78F
PLATTSBURGH    CLOUDY    50  48  93 CALM      29.77F FOG
$$

NYZ001>004-010>016-019>021-085-240800-
WEST


CITY           SKY/WX    TMP DP  RH WIND       PRES   REMARKS
NIAGARA FALLS  CLOUDY    59  47  64 E5        29.71S
BUFFALO        CLOUDY    59  47  64 SE6       29.71F
DUNKIRK        PTCLDY    61  44  53 S3        29.71R
JAMESTOWN      CLOUDY    54  43  66 S6        29.73S
WELLSVILLE     CLOUDY    54  42  64 CALM      29.76S
ROCHESTER      CLOUDY    56  50  80 CALM      29.72F
PENN YAN       PTCLDY    52  47  83 CALM      29.74F
$$

             KEY
       WCI = WIND CHILL INDEX
       VSB = VISIBILITY
       HX  = HEAT INDEX
$$



USA.gov is the U.S. government's official web portal to all federal, state and local government web resources and services.